STARLINK-3591, 51870

Orbit data source: Space-Track

STARLINK-3591, 51870 is a payload satellite owned by SpaceX/Seattle (US) in LEO that was launched on Thu, 03 Mar 2022 UTC via an FALCON 9 launch vehicle from the Air Force Eastern Test Range (AFETR). Payload-class satellites include a variety of spacecraft equipped with specific instruments for various scientific and technological missions. These include communications satellites like Starlink; space stations such as the ISS; scientific satellites like the Hubble; Earth observation satellites from companies like Planet Labs, Umbra, and HawkEye 360; GPS; miniature CubeSats for education and research; and military/defense satellites.

Loading next visibility...
Identifier
51870, 2022-022U
Orbit
LEO
Country
Flag of USUS
Related business
Manufacturer
SpaceX/Seattle
Mission
Operational Commercial Communications
Bus & Motor
STARLINK, Unknown motor
Mass
297 kg wet, ~275 kg dry
Launch date (UTC)
2022-03-03 (4 years ago)
Launch vehicle
FALCON 9
Launch site
Air Force Eastern Test Range (AFETR)
Object type
Payload
Rocket body
Debris
Shape & HBR
Box + 1 Pan, 10.1 m
Radar Cross Section
13.562 m², Large (>1 m²)

Expand to show TLE details & history
Last TLE update: 2 days ago

TLE from 2 days ago
0 STARLINK-3591
1 51870U 22022U   26171.43002949  .00000720  00000-0  63294-4 0  9994
2 51870  53.1587 267.7842 0001118  90.5222 269.5897 15.08836817238678
Epoch: 2026-06-20T10:19Z
TLE epoch observation values (Epoch: 2026-06-20T10:19:14.547Z)
Latitude
-0.00009°
Longitude
-155.67125°
Altitude
540.65 km
Speed
7.593 km/s
True Right ascension
17h 51m 08s
True Declination
0° 00' 00"
Sunlit
Object was in full shadow at epoch
Visualization orbit readout
Latitude
Unknown
Longitude
Unknown
Altitude
Unknown
Speed
Unknown
Apparent Right ascension
Unknown
Apparent Declination
Unknown
Sunlit
N/A
Visualization observer readout
Local Sidereal Time
21:33:46
Azimuth
Unknown
Elevation
Unknown
Doppler factor
Unknown
Orbital elements
Apogee altitude
540.781 km
Perigee altitude
539.234 km
Semi-major axis
6,918.144 km
Eccentricity
0.00011
Inclination
53.1587°
RAAN
267.7842°
Arg. of periapsis
90.5222°
True anomaly
269.57689°
Mean anomaly
269.5897°
Eccentric anomaly
269.58329°
Mean motion
3.77189 °/min
Orbital period
95.44 mins
BSTAR
0.000063294
Loading maneuver chart data...
Computing Atmospheric mass density...
Loading historical data...
Loading historical data...
Loading historical data...
Loading historical data...
Loading historical data...
Loading historical data...
Loading historical data...

Documentation

Showing up to 5 results
|